{"data":{"norad_id":58389,"epoch":"2026-05-25T01:55:04.828800Z","epoch_age_seconds":65373,"freshness":"FRESH","line1":"1 58389U 23178R   26145.07991700  .00000591  00000+0  32098-4 0  9995","line2":"2 58389  53.1610   6.4893 0001237  90.6748 269.4395 15.30193483141582","mean_motion":15.30193483,"eccentricity":0.0001237,"inclination_deg":53.161,"raan_deg":6.4893,"arg_perigee_deg":90.6748,"mean_anomaly_deg":269.4395,"bstar":3.2098e-5,"rev_number":14158,"period_min":94.105746495327,"perigee_km":474.38676601766,"apogee_km":476.08229013371,"semimajor_km":6853.3715280757,"source":"CELESTRAK","updated_at":"2026-05-25T13:38:18.615039Z"}}